[[{"header":{"parameterUnit":"m.s-1","parameterCategory":1,"la1":30.2991,"la2":30.254,"lo1":-89.0895,"lo2":-89.0444,"dy":0.0017,"dx":0.0017,"nx":28,"ny":28,"refTime":"2025-05-16T03:00:00:Z","depth":0,"parameterNumber":2,"parameterNumberName":"U-component_of_WINDS"},"data":[0,0,0,0,0,0,0,0,0,0,0,0,0,0,0,0,0,0,0,0,0,0,0,0,0,0,0,0,0,0,0,0,0,0,0,0,0,0,0,0,0,0,0,0,0,0,0,0,0,0,0,0,0,0,0,0,0,0,0.8846,0.8847,0,0.8907,0.8908,0.8909,0.891,0.8909,0.8908,0.8908,0.8969,0.8971,0.8974,0,0,0,0,0,0,0,0,0,0,0,0,0,0.8729,0.8732,0.8846,0.8847,0.8848,0.8907,0.8908,0.8909,0.891,0.8909,0.8908,0.8907,0.8968,0.8971,0.8974,0,0,0,0,0,0,0,0,0,0,0,0,0,0.8784,0.8732,0.8846,0.8856,0.8857,0.8907,0.8908,0.8909,0.891,0.8909,0.8908,0.8907,0.8967,0.8971,0.8974,0.9019,0,0,0.8985,0.8986,0,0,0,0,0,0,0,0,0.8781,0.8789,0.8853,0.8855,0.8857,0.89,0.8889,0.8946,0.891,0.889,0.8908,0.8906,0.8947,0.8952,0.8966,0.9021,0.9024,0.8985,0.8987,0.8989,0.899,0,0,0,0,0,0,0,0.8777,0.8786,0.887,0.8854,0.8856,0.8856,0.8863,0.89,0.8924,0.8892,0.8892,0.8899,0.8947,0.8962,0.8967,0.9025,0.8985,0.8988,0.899,0.8992,0.912,0.9121,0,0,0,0,0,0,0.8772,0.8783,0.8869,0.8872,0.8815,0.8859,0.8867,0.8887,0.8924,0.8928,0.89,0.8899,0.8957,0.8963,0.8969,0.9024,0.8989,0.8992,0.8994,0.9118,0.912,0.9121,0,0,0,0,0,0,0.8769,0.878,0.8866,0.8828,0.8839,0.8863,0.8886,0.8889,0.8904,0.893,0.8934,0.8911,0.8956,0.8964,0.9006,0.9026,0.8994,0.8997,0.9117,0.9119,0.9121,0.9133,0,0,0,0,0,0,0.8766,0.8779,0.8796,0.8828,0.8841,0.8902,0.8887,0.8891,0.891,0.8909,0.8941,0.8946,0.8956,0.9001,0.901,0.903,0.9,0.9115,0.9118,0.912,0.9131,0.9135,0.9138,0,0,0,0,0,0.8762,0.8797,0.8797,0.8807,0.8863,0.8904,0.8911,0.8922,0.8912,0.8929,0.8946,0.8945,0.9022,0.9005,0.9015,0.9037,0.9114,0.9117,0.912,0.9129,0.9134,0.9138,0,0,0,0,0,0,0.8766,0.8801,0.8802,0.8848,0.8873,0.8904,0.8926,0.8927,0.8955,0.8953,0.8966,0.8974,0.9015,0.903,0.9011,0.9082,0.9067,0.9072,0.907,0.9075,0.9079,0.9075,0.9003,0,0,0,0,0,0.8773,0.8803,0.8832,0.887,0.8883,0.8902,0.892,0.8927,0.8953,0.8963,0.8983,0.9008,0.9038,0.9057,0.9086,0.9133,0.914,0.9152,0.9156,0.9159,0.9163,0.9189,0.9195,0.9131,0.9131,0.9131,0,0,0.8786,0.8809,0.8828,0.8872,0.8892,0.8922,0.8911,0.8944,0.8967,0.8968,0.9009,0.9024,0.9053,0.9097,0.9117,0.9111,0.9183,0.9163,0.9165,0.9168,0.9192,0.9198,0.9204,0.9133,0.9132,0.9132,0,0,0.8827,0.8847,0.8882,0.8902,0.8932,0.8945,0.8953,0.8984,0.8994,0.9035,0.9037,0.9064,0.9115,0.9135,0.9152,0.92,0.92,0.9209,0.9229,0.9254,0.9259,0.9263,0.928,0.9286,0.9213,0.9213,0.9213,0,0.884,0.8887,0.8899,0.8932,0.8951,0.8954,0.8988,0.9007,0.9045,0.9058,0.905,0.9115,0.9134,0.9183,0.9194,0.9208,0.9218,0.9206,0.9257,0.9262,0.9266,0.9282,0.9289,0.9214,0.9214,0.9214,0.9214,0,0.8901,0.8933,0.8957,0.8994,0.9016,0.905,0.9066,0.9087,0.9091,0.9105,0.9147,0.917,0.9204,0.9216,0.922,0.9265,0.926,0.9254,0.924,0.9273,0.9288,0.9295,0.9215,0.9215,0.9215,0.9214,0,0,0.8947,0.899,0.8998,0.9015,0.9049,0.9074,0.9107,0.914,0.9157,0.9183,0.9212,0.9255,0.925,0.9269,0.9276,0.9298,0.9334,0.9289,0.929,0.9297,0.9384,0.9388,0.9395,0.9334,0.9335,0.9336,0.9382,0,0.8991,0.9051,0.9062,0.9114,0.9144,0.9147,0.9176,0.9199,0.9213,0.924,0.9254,0.9285,0.9276,0.9287,0.9309,0.9325,0.9351,0.9322,0.936,0.9361,0.9353,0.9403,0.9408,0.945,0.9388,0.9389,0.939,0,0.905,0.9078,0.9133,0.9163,0.9176,0.9202,0.9233,0.9259,0.9285,0.9293,0.9314,0.9319,0.9353,0.9337,0.9384,0.9364,0.938,0.939,0.9392,0.9396,0.9377,0.9409,0.9464,0.947,0.9399,0.9399,0.9398,0,0.9078,0.9129,0.9169,0.9183,0.9218,0.9236,0.9252,0.9277,0.9296,0.9323,0.9336,0.9366,0.9383,0.9406,0.9419,0.9406,0.9465,0.945,0.9473,0.9472,0.9485,0.9484,0.9544,0.9495,0.9495,0.9495,0.9495,0,0.9126,0.916,0.9182,0.9206,0.9244,0.9256,0.9293,0.9308,0.933,0.9357,0.9361,0.9386,0.9401,0.9428,0.9438,0.9476,0.9483,0.9491,0.9493,0.949,0.9489,0.9501,0.9499,0.9497,0.9497,0.9496,0.9496,0,0.9164,0.918,0.9223,0.9253,0.9261,0.9287,0.9313,0.9336,0.9349,0.9383,0.9392,0.9412,0.9444,0.9459,0.9499,0.9505,0.9548,0.9548,0.9539,0.954,0.9562,0.956,0.9632,0.9642,0.9586,0.9587,0.9587,0,0.9193,0.9219,0.9252,0.9271,0.9287,0.9316,0.9336,0.9349,0.9369,0.9401,0.9421,0.9453,0.948,0.9531,0.9549,0.9579,0.958,0.9603,0.9584,0.9581,0.958,0.9579,0.9581,0.9606,0.9607,0.9607,0.9608,0,0.9245,0.9251,0.928,0.9311,0.9334,0.936,0.9384,0.9399,0.9416,0.9438,0.9471,0.9492,0.9532,0.9564,0.9595,0.9611,0.9612,0.9613,0.962,0.9618,0.9612,0.9616,0.9549,0.9612,0.9611,0.9611,0.9611,0.9611,0.9279,0.9302,0.9329,0.9361,0.938,0.9403,0.9427,0.9443,0.9471,0.9505,0.9511,0.9546,0.9571,0.9614,0.963,0.9657,0.9652,0.9662,0.9664,0.9667,0.9668,0.9607,0.9663,0.9663,0.9663,0.9663,0.9663,0,0.9331,0.9348,0.9377,0.9411,0.9436,0.9435,0.9462,0.9483,0.9514,0.9537,0.9563,0.9601,0.9632,0.9653,0.9684,0.9702,0.9703,0.9709,0.9708,0.9712,0.9671,0.9662,0.9708,0.9708,0.9708,0.9708,0.9708,0.9708,0.936,0.94,0.9409,0.9458,0.9475,0.951,0.9525,0.9546,0.9565,0.9607,0.9633,0.9646,0.9669,0.9701,0.973,0.9735,0.9746,0.9753,0.9758,0.9719,0.9715,0.971,0.9702,0.9755,0.9755,0.9796,0.9797,0.9797]},{"header":{"parameterUnit":"m.s-1","parameterCategory":1,"la1":30.2991,"la2":30.254,"lo1":-89.0895,"lo2":-89.0444,"dy":0.0017,"dx":0.0017,"nx":28,"ny":28,"refTime":"2025-05-16T03:00:00:Z","depth":0,"parameterNumber":3,"parameterNumberName":"V-component_of_WINDS"},"data":[0,0,0,0,0,0,0,0,0,0,0,0,0,0,0,0,0,0,0,0,0,0,0,0,0,0,0,0,0,0,0,0,0,0,0,0,0,0,0,0,0,0,0,0,0,0,0,0,0,0,0,0,0,0,0,0,0,0,3.9807,3.9806,0,3.9715,3.9714,3.9713,3.9627,3.9626,3.9625,3.9624,3.9528,3.9526,3.9525,0,0,0,0,0,0,0,0,0,0,0,0,0,3.9906,3.9904,3.9807,3.9806,3.9805,3.9716,3.9714,3.9713,3.9627,3.9626,3.9625,3.9623,3.9528,3.9527,3.9525,0,0,0,0,0,0,0,0,0,0,0,0,0,3.9843,3.9904,3.9807,3.9751,3.9745,3.9716,3.9714,3.9713,3.9627,3.9626,3.9624,3.9623,3.9529,3.9527,3.9524,3.9542,0,0,3.9517,3.9516,0,0,0,0,0,0,0,0,3.9847,3.984,3.9761,3.9755,3.9748,3.9681,3.9714,3.9656,3.9628,3.9672,3.9624,3.9622,3.958,3.9573,3.956,3.9538,3.9534,3.9517,3.9516,3.9515,3.9514,0,0,0,0,0,0,0,3.9851,3.9843,3.9771,3.976,3.9752,3.973,3.9719,3.9702,3.9636,3.9668,3.9662,3.9652,3.9576,3.9562,3.9557,3.9532,3.9517,3.9515,3.9514,3.9513,3.952,3.9522,0,0,0,0,0,0,3.9865,3.9847,3.9774,3.9768,3.9795,3.973,3.9718,3.9704,3.9636,3.9624,3.9654,3.9648,3.9567,3.956,3.9553,3.957,3.9515,3.9513,3.9511,3.9519,3.9521,3.9522,0,0,0,0,0,0,3.9867,3.9859,3.9777,3.9806,3.9794,3.973,3.9715,3.9703,3.9689,3.9625,3.9613,3.9651,3.9565,3.9556,3.9546,3.9565,3.9512,3.9509,3.9517,3.9519,3.9522,3.9603,0,0,0,0,0,0,3.987,3.986,3.9867,3.9807,3.9793,3.9773,3.9716,3.9703,3.9685,3.9678,3.962,3.9609,3.9563,3.955,3.9544,3.9561,3.9508,3.9515,3.9518,3.9521,3.9599,3.9608,3.9616,0,0,0,0,0,3.9874,3.9893,3.9868,3.9859,3.98,3.9774,3.9766,3.9714,3.9687,3.9693,3.9652,3.961,3.9564,3.9549,3.9542,3.9559,3.9513,3.9517,3.9521,3.9595,3.9606,3.9616,0,0,0,0,0,0,3.9956,3.9884,3.9855,3.9856,3.9822,3.9759,3.9765,3.9728,3.97,3.9694,3.963,3.9618,3.9615,3.9585,3.957,3.9572,3.9533,3.9535,3.9592,3.9602,3.9611,3.9619,3.9506,0,0,0,0,0,3.9975,3.9961,3.9898,3.9904,3.9889,3.983,3.9817,3.978,3.9742,3.9727,3.9685,3.9649,3.9626,3.9612,3.9588,3.9594,3.958,3.9601,3.961,3.9618,3.9621,3.9622,3.9631,3.9534,3.9534,3.9534,0,0,4.0012,3.9971,3.9966,3.992,3.9889,3.9875,3.9819,3.9806,3.9795,3.9724,3.9712,3.9681,3.9636,3.9634,3.9631,3.9609,3.9644,3.9623,3.9629,3.9628,3.9627,3.9636,3.9644,3.9537,3.9536,3.9536,0,0,4.0074,4.0041,4.0043,4.0014,3.9968,3.9929,3.993,3.9873,3.9849,3.9836,3.9783,3.9769,3.9731,3.9701,3.9682,3.9732,3.9693,3.9726,3.9772,3.9774,3.9782,3.9788,3.9807,3.9814,3.9729,3.9729,3.9729,0,4.0126,4.0104,4.0048,4.004,4.0021,3.9957,3.9958,3.9932,3.9881,3.9869,3.9846,3.9797,3.9762,3.9753,3.9765,3.9751,3.9749,3.9732,3.9785,3.9791,3.9796,3.9813,3.982,3.9733,3.9733,3.9732,3.9732,0,4.017,4.0156,4.0162,4.0116,4.0097,4.0094,4.0037,4.0025,3.999,3.9953,3.994,3.9897,3.9863,3.9857,3.9822,3.9842,3.9831,3.9797,3.9756,3.9811,3.9826,3.9832,3.9739,3.9738,3.9736,3.9735,0,0,4.0282,4.0204,4.0208,4.0186,4.0131,4.0118,4.0111,4.0078,4.007,4.0036,4.0029,3.9998,3.9967,3.9944,3.9905,3.9907,3.995,3.9873,3.9871,3.9889,3.997,3.9996,4.0005,3.9923,3.9924,3.9925,3.9974,0,4.0334,4.0319,4.0269,4.0269,4.0254,4.0194,4.0187,4.0153,4.0118,4.01,4.0061,4.0041,4.0001,3.9988,3.9986,3.9945,3.9966,3.9941,3.9916,3.9915,3.993,4.0012,4.004,4.0088,3.9979,3.998,3.9981,0,4.0394,4.0366,4.0364,4.031,4.0302,4.0298,4.0264,4.0248,4.0207,4.0181,4.0157,4.0113,4.0102,4.0064,4.0047,4.0032,4.0018,3.9996,3.9997,3.9993,3.9952,4.0011,4.0102,4.011,3.9989,3.9989,3.9988,0,4.0476,4.0437,4.0432,4.0414,4.0351,4.0349,4.0323,4.028,4.0264,4.0234,4.0222,4.0191,4.0174,4.0151,4.01,4.0077,4.0089,4.0047,4.0068,4.0069,4.0074,4.0074,4.0164,4.0064,4.0064,4.0064,4.0064,0,4.0541,4.0542,4.0468,4.0464,4.0464,4.0406,4.0407,4.0375,4.0338,4.0326,4.0271,4.0262,4.0195,4.0177,4.0137,4.013,4.0122,4.0101,4.0091,4.0107,4.011,4.0097,4.0093,4.0066,4.0065,4.0065,4.0065,0,4.0633,4.0583,4.0573,4.0514,4.0499,4.0502,4.045,4.0444,4.0406,4.0393,4.0386,4.0327,4.0303,4.025,4.0212,4.0185,4.0188,4.0168,4.0202,4.0196,4.022,4.0219,4.0306,4.0315,4.0209,4.021,4.0211,0,4.0678,4.0678,4.0619,4.0608,4.0584,4.0566,4.055,4.0492,4.0477,4.043,4.043,4.0402,4.0377,4.0343,4.0296,4.0266,4.0246,4.0278,4.0241,4.0257,4.0247,4.0248,4.0248,4.0287,4.0289,4.029,4.0291,0,4.0763,4.0738,4.0717,4.0686,4.0668,4.0641,4.0611,4.0605,4.054,4.0526,4.0501,4.0482,4.0444,4.0417,4.0381,4.0352,4.0311,4.0303,4.0306,4.0323,4.0343,4.0333,4.0226,4.0301,4.03,4.0299,4.0299,4.0298,4.0833,4.083,4.0789,4.0766,4.0738,4.0711,4.0703,4.0664,4.0644,4.0609,4.0575,4.0555,4.0513,4.046,4.0435,4.0417,4.0396,4.0401,4.0402,4.0405,4.0412,4.0345,4.041,4.041,4.0409,4.0409,4.0409,0,4.0916,4.0886,4.0866,4.0827,4.0809,4.0772,4.0737,4.0724,4.0707,4.0672,4.0649,4.0622,4.0595,4.0546,4.0516,4.0511,4.0491,4.0505,4.0505,4.0499,4.0432,4.0432,4.0521,4.0521,4.0521,4.0521,4.0521,4.0521,4.0957,4.0951,4.0921,4.09,4.087,4.085,4.0833,4.0808,4.078,4.0752,4.073,4.0699,4.0658,4.0624,4.0598,4.0584,4.0576,4.0596,4.0576,4.0514,4.0504,4.0494,4.0494,4.0594,4.0595,4.0645,4.0645,4.0646]}]]